Tracking 31027 objects as of 19-Jul-2025
HD Live streaming from Space Station
objects crossing your sky now

STARLINK-3868

Track STARLINK-3868 now!
10-day predictions
STARLINK-3868 is classified as:


NORAD ID: 52649
Int'l Code: 2022-052BD
Perigee: 546.1 km
Apogee: 547.6 km
Inclination: 53.2 °
Period: 95.4 minutes
Semi major axis: 6917 km
RCS: Unknown
Launch date: May 14, 2022
Source: United States (US)
Launch site: AIR FORCE EASTERN TEST RANGE (AFETR)
Your satellite tracking list
IRIDIUM 106
Track 1 satellite(s)




NASA's NSSDC Master Catalog

Two Line Element Set (TLE):
1 52649U 22052BD  25199.80073743  .00000160  00000-0  28145-4 0  9996
2 52649  53.2158 228.9418 0001076  79.5797 280.5316 15.08838564176203
Source of the keplerian elements: AFSPC